Regional Weather Roundup
Issued by NWS New Orleans/Baton Rouge, LA

Home | Current Version | Previous Version | Graphics & Text | Print | Product List | Glossary On
Versions: 1 2 3 4 5 6 7 8 9 10 11 12 13 14 15 16 17 18 19 20 21 22 23 24 25 26 27 28 29 30 31 32 33 34 35 36 37 38 39 40 41 42 43 44 45 46 47 48 49 50
791
ASUS44 KLIX 301011
RWRLIX
NEW ORLEANS REGIONAL WEATHER ROUNDUP
NATIONAL WEATHER SERVICE NEW ORLEANS LA
500 AM CDT MON MAR 30 2015

NOTE: "FAIR" INDICATES FEW OR NO CLOUDS BELOW 12,000 FEET WITH NO
      SIGNIFICANT WEATHER AND/OR OBSTRUCTIONS TO VISIBILITY.
      SKY/WX - SKY CONDITION AND SIGNIFICANT WEATHER.
      TMP - AIR TEMPERATURE.     DP    - DEWPOINT TEMPERATURE.
      RH  - RELATIVE HUMIDITY.   PRES  - PRESSURE.
      HI  - HEAT INDEX.          WCI   - WIND CHILL INDEX.

*  THESE STATIONS ARE NOT NWS OR FAA STATIONS AND ARE NOT UNDER
   NWS QUALITY CONTROL.

LAZ038-040-048-061>063-065>067-069-301100-
SOUTHEAST LOUISIANA

CITY           SKY/WX    TMP DP  RH WIND       PRES   REMARKS
N.O. AUDUBON     N/A     61  61  99 MISG        N/A
N.O. INTL ARPT PTCLDY    63  59  87 CALM      30.18S
N.O. LAKEFRONT MOCLDY    67  63  87 NW5       30.19S
SLIDELL        FOG       57  56  96 CALM      30.18S VSB 1/2
BATON ROUGE    MOCLDY    59  58  96 CALM      30.18R
BOOTHVILLE     CLEAR     67  63  87 CALM      30.19R
BELLE CHASSE   CLOUDY    57  55  93 CALM      30.17F FOG
BOGALUSA*      FOG       58  55  91 CALM      30.20S VSB 1/2
GALLIANO*      PTSUNNY   56  56  99 CALM      30.18S
NEW ROADS*     CLOUDY    59  58  98 CALM      30.18S FOG
GONZALES*        N/A     58  58 100 CALM      30.18S
HAMMOND*       CLOUDY    57  55  94 CALM      30.20R
HOUMA*         FOG       59  59  99 CALM      30.17S VSB 1/2
PORT FOURCHON* SUNNY     70  66  88 SW6       30.21R

$$

MSZ070-080>082-301100-
SOUTHERN MISSISSIPPI

CITY           SKY/WX    TMP DP  RH WIND       PRES   REMARKS
MCCOMB         PTCLDY    56  55  97 CALM      30.18S
GULFPORT       MOCLDY    63  61  93 CALM      30.18F
BILOXI         MOCLDY    64  64 100 SW5       30.18S
PASCAGOULA     MOCLDY    65  62  90 CALM      30.19S

$$

COASTAL OBSERVATIONS
LAKE AND NEARSHORE STATIONS

STATION/POSITION TIME  TEMP    WIND        PRES    WAVE
                       AIR SEA DIR/SP/G            HT/PER
                 (UTC) (F)     (DEG/KT/KT) (MB)    (FT/S)
PASCAGOULA       0900   67     210/  8/  9 1021.9
WAVELAND YACHT   0900   65 65   CALM  /  2 1022.0
GRAND ISLE       0900   67 68  210/  4/  6 1021.0
SOUTHWEST PASS   0900   66 54  190/ 15/ 18 1021.9
NEW CANAL        0900   66     270/  2/  2 1022.4
SHELL BEACH      0900   66 69  210/  4/  4 1021.8

OFFSHORE STATIONS

STATION/POSITION TIME  TEMP    WIND        PRES    WAVE
                       AIR SEA DIR/SP/G            HT/PER
                 (UTC) (F)     (DEG/KT/KT) (MB)    (FT/S)
64 S DAUPHIN ISL 0950   69 70  190/ 17/ 19 1022.3    4/ 5

$$




USA.gov is the U.S. government's official web portal to all federal, state and local government web resources and services.